Flag for Spain Weather past 2 weeks in Zaragoza, Spain

Now
64 °F

Passing clouds.


Feels Like: 64 °F
Forecast: 65 / 89 °F
Wind: 3 mph from Northwest

Location: Zaragoza / Aeropuerto

Current Time: Aug 2, 2014 at 8:43:18 AM

Latest Report: Aug 2, 2014 at 8:00 AM


Visibility: N/A

Pressure: 29.83 "Hg

Humidity: 88%

Dew point: 61 °F

Location of ZaragozaLocation

Historic Weather in Zaragoza — Graph

°F

Zaragoza temperature yesterday

Maximum temperature yesterday: 91 °F (at 4:00 PM)
Minimum temperature yesterday: 68 °F (at 5:00 AM)
Average temperature yesterday: 76 °F

Past Weeks' High & Low Weather Summary

 TemperatureHumidityPressure
High99 °F (Jul 18, 4:00 PM)88% (Jul 25, 6:00 AM)30.18 "Hg (Jul 25, 6:00 AM)
Low61 °F (Jul 30, 4:00 AM)19% (Jul 19, 12:30 PM)29.68 "Hg (Aug 1, 6:00 PM)
Average75 °F51%29.95 "Hg
* Reported Jul 18 7:00 AM — Aug 2 7:30 AM, Zaragoza, Weather by CustomWeather, © 2014

Note: Actual official high and low records may vary slightly from our data, if they occured in-between our weather recording intervals... More about our weather records

Advertising

Zaragoza weather history for previous 24 hours

 ConditionsComfort  
Time TempWeatherWind HumidityBarometerVisibility
7:30 AM
Aug 2
64 °FPassing clouds.3 mph88%29.83 "HgN/A
7:00 AM64 °FPassing clouds.3 mph88%29.83 "HgN/A
6:30 AM64 °FPassing clouds.5 mph88%29.83 "HgN/A
6:00 AM66 °FPassing clouds.7 mph83%29.83 "HgN/A
5:30 AM66 °FPassing clouds.7 mph83%29.83 "HgN/A
5:00 AM66 °FPassing clouds.5 mph83%29.83 "HgN/A
4:30 AM66 °FPassing clouds.8 mph83%29.83 "HgN/A
4:00 AM64 °FPassing clouds.9 mph88%29.83 "HgN/A
3:30 AM66 °FPassing clouds.8 mph88%29.83 "HgN/A
3:00 AM64 °FPassing clouds.1 mph88%29.83 "HgN/A
2:30 AM64 °FPassing clouds.No wind88%29.83 "HgN/A
2:00 AM66 °FPassing clouds.3 mph83%29.83 "HgN/A
1:30 AM68 °FPassing clouds.No wind78%29.83 "HgN/A
1:00 AM68 °FThundershowers. Passing clouds.8 mph78%29.83 "HgN/A
12:30 AM68 °FThundershowers. Passing clouds.13 mph78%29.80 "HgN/A
12:00 AM70 °FThundershowers. Passing clouds.15 mph73%29.80 "HgN/A
11:30 PM
Aug 1
70 °FThundershowers. Passing clouds.14 mph78%29.80 "HgN/A
11:00 PM70 °FThundershowers. Passing clouds.12 mph78%29.80 "HgN/A
10:30 PM72 °FPassing clouds.12 mph73%29.80 "HgN/A
10:00 PM73 °FThundershowers. Scattered clouds.9 mph74%29.77 "HgN/A
9:30 PM73 °FScattered clouds.5 mph78%29.77 "HgN/A
9:00 PM73 °FPassing clouds.2 mph78%29.77 "HgN/A
8:30 PM73 °FThundershowers. Passing clouds.No wind78%29.74 "HgN/A
8:00 PM73 °FThundershowers. Passing clouds.6 mph74%29.74 "HgN/A
7:30 PM70 °FThunderstorms. Scattered clouds.18 mph83%29.71 "Hg4 mi
7:00 PM75 °FThunderstorms. Broken clouds.12 mph78%29.71 "Hg2 mi
6:30 PM82 °FThunderstorms. Scattered clouds.17 mph58%29.68 "HgN/A
6:00 PM84 °FScattered clouds.20 mph45%29.68 "HgN/A
5:30 PM84 °FPassing clouds.13 mph43%29.71 "HgN/A
5:00 PM82 °FThunderstorms. Passing clouds.22 mph45%29.71 "HgN/A
4:30 PM91 °FPassing clouds.8 mph28%29.71 "HgN/A
4:00 PM91 °FPassing clouds.12 mph30%29.71 "HgN/A
3:30 PM90 °FPassing clouds.10 mph33%29.74 "HgN/A
3:00 PM90 °FPassing clouds.9 mph36%29.77 "HgN/A
2:30 PM88 °FPassing clouds.10 mph40%29.77 "HgN/A
2:00 PM86 °FPassing clouds.10 mph43%29.80 "HgN/A
1:30 PM84 °FSunny.5 mph45%29.80 "Hg10 mi
1:00 PM82 °FSunny.2 mph45%29.83 "Hg10 mi
12:30 PM81 °FSunny.1 mph48%29.83 "Hg10 mi
12:00 PM79 °FPassing clouds.2 mph51%29.86 "HgN/A
11:30 AM77 °FPassing clouds.2 mph57%29.86 "HgN/A
11:00 AM73 °FPassing clouds.3 mph65%29.86 "HgN/A
10:30 AM73 °FPassing clouds.6 mph65%29.89 "HgN/A
10:00 AM72 °FPassing clouds.8 mph69%29.89 "HgN/A
9:30 AM70 °FPassing clouds.7 mph69%29.89 "HgN/A
9:00 AM70 °FPassing clouds.8 mph69%29.89 "HgN/A
8:30 AM68 °FPassing clouds.10 mph73%29.86 "HgN/A
8:00 AM68 °FPassing clouds.6 mph73%29.89 "HgN/A
Weather by CustomWeather, © 2014

See weather overviewHow to use our weather pages